Wind_Speed
28 30 31 31 28 26 26 29 35 32 31 40 47 27 29 30 25 23 21 20 18 17 15 14 14 13 12 10 9 8 7 5 5 5 2 2 1 2 2 2 2 5 6
23 26 29 30 30 27 26 32 32 31 36 41 44 37 32 31 28 26 22 20 18 17 16 15 14 12 11 10 9 8 7 6 5 7 5 3 1 2 1 1 0 2 5
23 23 28 29 31 29 29 32 32 28 34 45 45 32 24 25 28 26 23 21 19 18 16 16 14 13 11 10 9 8 7 6 5 6 7 3 2 3 1 1 1 6 6
26 23 26 29 30 29 29 31 30 30 35 46 44 40 33 25 30 28 26 22 19 18 17 15 14 12 11 10 9 8 7 7 6 6 5 5 4 2 2 5 4 7 7
28 27 26 30 27 26 26 31 27 30 37 45 41 38 30 21 23 27 25 22 21 18 17 15 13 12 11 10 8 8 8 8 7 6 5 7 7 5 4 1 4 8 7
35 27 23 26 26 25 27 30 30 33 37 45 39 32 32 24 27 27 26 24 22 20 17 15 13 12 11 11 10 9 8 8 9 7 8 8 5 4 5 3 8 11 9
27 24 21 26 26 27 28 32 29 36 41 43 41 33 26 27 27 27 26 25 23 20 18 16 14 13 12 12 11 10 10 10 10 6 8 6 5 5 6 7 9 14 17
25 19 20 24 27 27 28 30 33 41 43 39 31 33 21 21 24 24 24 23 22 20 19 17 15 13 12 12 12 12 12 11 9 6 6 5 6 7 9 9 12 16 13
22 13 16 22 24 27 29 29 37 41 41 40 33 32 24 24 25 24 24 23 22 21 19 17 15 14 13 13 13 13 12 10 6 4 5 6 8 9 11 12 12 12 9
17 9 15 21 20 26 28 29 37 39 43 41 33 27 18 24 25 26 25 22 22 20 19 17 15 14 14 14 14 12 9 7 6 4 6 7 10 12 12 13 13 13 14
6 7 15 19 20 26 25 34 39 45 45 40 37 33 23 26 27 25 24 22 22 20 18 17 16 16 16 14 12 10 7 5 4 6 6 10 11 12 13 15 16 16 17
2 10 15 18 22 25 30 33 43 45 42 38 38 33 28 26 26 26 24 22 22 20 18 17 17 18 16 13 9 6 4 4 6 6 9 11 12 14 15 17 17 18 19
9 11 16 21 25 24 31 36 43 45 36 39 36 39 26 25 24 23 24 22 21 20 19 19 18 16 14 11 6 4 4 5 6 8 11 12 14 15 17 18 18 19 20
8 15 20 21 22 24 32 37 40 36 31 33 33 31 27 25 24 22 19 18 19 20 21 19 17 15 11 7 4 4 5 7 8 10 12 14 16 18 19 20 20 19 20
10 14 18 20 22 28 35 37 38 32 27 29 30 31 29 30 27 25 23 23 20 20 21 19 15 12 7 5 4 5 6 7 10 13 15 17 18 20 21 22 20 20 20
9 15 15 18 21 30 35 45 46 43 28 26 27 26 27 30 27 25 23 23 24 21 19 15 11 8 5 4 4 6 7 10 11 13 16 17 19 21 22 21 19 18 20
12 14 18 19 25 33 36 42 40 38 35 29 30 29 29 27 26 25 25 24 22 20 16 11 8 5 3 4 5 7 9 11 14 15 17 18 20 21 20 18 15 15 15
10 13 15 21 30 35 40 39 40 36 30 27 28 27 27 27 26 25 24 23 20 17 13 9 6 3 3 4 6 9 11 13 15 17 19 19 19 17 19 19 17 18 19
9 12 16 25 30 35 33 34 32 31 27 26 26 26 25 25 25 25 23 21 17 15 11 7 4 2 3 6 9 11 13 14 16 18 19 19 18 17 21 18 19 21 21
10 12 16 20 28 31 33 33 31 30 27 26 24 23 21 21 24 23 21 18 14 11 9 6 3 2 5 8 10 12 15 16 18 18 17 16 18 21 20 18 21 24 26
14 19 24 30 32 29 29 28 27 26 26 28 27 25 23 24 23 22 18 15 12 9 7 4 3 4 7 10 12 14 15 17 18 17 15 16 18 21 20 20 23 23 25
14 24 33 31 32 30 29 28 28 27 27 27 25 25 25 24 21 18 16 14 11 8 5 3 3 6 9 11 13 15 16 17 16 16 16 18 20 20 21 20 20 22 20
14 20 26 27 24 25 25 26 27 28 28 26 26 26 25 22 19 17 15 12 9 6 4 3 4 6 10 13 14 15 17 17 17 18 20 21 21 23 21 19 18 18 17
14 19 23 25 26 24 24 25 29 30 29 29 28 26 24 22 19 16 12 9 7 5 3 2 5 8 11 13 15 17 16 16 18 18 20 22 21 19 17 16 17 18 18
16 18 21 24 25 25 26 28 29 29 30 30 28 26 22 19 17 14 11 9 7 4 2 3 7 9 12 14 16 18 18 19 18 20 22 20 17 17 16 16 19 22 21
20 20 22 24 26 26 27 28 28 28 28 28 26 23 20 18 14 12 12 9 6 3 1 4 8 10 12 15 18 19 20 20 19 20 19 17 17 16 19 21 24 23 22
Wind_Direction
275 260 252 249 248 243 237 227 232 231 227 207 203 192 184 189 182 189 189 190 182 178 173 171 169 169 168 166 164 161 160 154 155 132 128 122 132 189 228 249 255 304 318
285 264 248 244 242 241 235 227 226 224 219 214 198 194 189 188 183 184 186 185 179 174 169 168 166 164 161 160 159 158 149 139 157 161 174 137 84 332 227 231 286 338 350
295 273 248 241 237 235 226 222 218 217 217 205 196 184 178 186 176 177 183 181 175 170 165 162 162 161 158 157 153 151 149 141 131 155 158 165 151 192 333 352 47 342 352
310 280 249 237 230 229 222 223 220 218 217 201 192 191 186 181 179 175 179 174 170 166 162 160 158 158 154 152 148 145 144 138 129 119 128 146 157 156 171 347 1 343 333
313 292 253 230 227 222 215 213 218 212 212 200 194 188 186 184 176 175 172 169 166 163 160 157 156 154 149 148 145 138 137 129 128 125 119 103 103 83 113 113 267 315 292
305 286 250 223 217 212 212 210 213 210 207 195 190 175 160 187 187 173 169 165 165 160 159 156 154 150 147 144 136 131 129 120 114 113 102 88 89 49 42 346 304 316 316
300 282 232 211 204 200 209 204 208 200 199 190 177 155 162 191 186 174 169 166 165 160 158 153 151 146 142 138 133 129 123 118 111 107 88 74 44 13 357 340 320 315 325
303 281 220 204 195 196 202 201 201 192 189 180 165 159 176 179 181 174 167 168 164 158 154 150 148 143 142 139 132 126 122 114 107 91 63 37 9 349 339 333 327 327 321
310 269 207 197 189 195 194 199 192 184 177 163 151 149 177 173 177 172 164 165 161 156 151 148 146 144 142 138 131 127 119 110 98 62 33 358 348 336 335 337 333 324 312
304 237 196 181 191 188 184 196 190 184 163 154 153 146 160 170 171 165 165 164 158 155 150 145 144 145 140 136 129 122 120 105 68 16 2 346 346 339 336 333 329 320 303
305 197 176 178 178 174 186 182 173 167 163 154 152 151 162 166 164 163 160 158 151 149 146 143 144 144 137 135 131 122 105 72 31 358 345 352 345 336 329 329 328 321 312
6 155 166 168 163 169 168 162 163 158 158 159 148 152 158 157 159 158 155 154 150 144 144 141 147 145 138 135 125 118 76 38 3 354 350 346 341 335 330 329 326 320 318
100 137 152 158 164 158 158 152 149 152 164 147 143 140 154 156 159 157 152 151 149 147 145 143 147 141 140 133 123 91 44 17 357 349 347 341 336 331 328 327 323 319 312
124 137 150 153 149 153 159 159 155 164 168 158 157 152 164 165 165 155 148 150 145 148 145 145 145 146 134 123 100 54 16 2 351 348 342 337 333 329 326 326 323 318 315
146 155 159 155 157 156 158 159 155 165 163 155 155 154 164 168 163 155 152 155 151 145 146 149 147 135 127 106 70 26 10 355 346 343 341 334 333 328 328 327 323 317 314
155 164 150 159 169 168 167 166 165 167 163 156 154 165 165 161 155 152 157 156 148 143 143 148 140 128 122 78 30 12 353 347 344 342 340 335 333 330 324 321 319 329 326
169 165 166 170 171 159 162 158 155 153 153 170 167 163 162 158 155 152 150 147 143 143 145 141 136 123 82 44 15 359 351 344 341 342 339 336 327 322 319 321 321 315 304
159 179 168 157 153 150 154 149 146 146 159 163 158 159 158 153 150 150 148 145 146 144 143 139 128 97 47 16 1 352 347 344 342 339 335 327 321 317 316 320 317 303 314
170 167 169 155 150 146 145 146 150 152 154 160 161 159 158 157 152 149 148 147 147 147 141 136 119 70 19 3 354 346 344 345 341 334 326 323 325 321 324 320 315 314 308
143 150 155 157 154 152 151 154 156 156 161 157 157 159 159 158 151 148 150 149 147 142 138 129 106 30 358 351 347 346 344 339 331 325 324 320 318 317 319 315 310 306 311
134 151 150 150 151 158 159 159 159 160 160 162 161 158 161 157 153 149 149 146 147 145 131 116 71 5 348 347 347 343 334 328 324 320 317 311 305 314 318 314 312 309 309
124 138 145 150 159 161 163 167 163 160 159 158 158 161 158 156 152 153 151 149 150 139 116 81 21 356 345 347 340 333 327 323 322 319 314 312 315 317 318 315 310 310 318
119 140 152 159 159 164 171 163 160 161 159 165 163 159 157 157 156 158 155 151 141 125 101 42 360 343 344 339 334 327 324 325 328 329 327 324 315 318 318 318 324 323 312
141 147 149 149 152 160 166 168 162 162 163 162 161 161 163 161 159 157 153 147 137 126 104 21 355 350 340 332 330 328 326 323 319 315 318 320 318 318 319 313 310 315 315
157 153 155 157 158 161 166 168 167 168 168 166 165 166 165 164 159 158 157 154 149 142 100 14 356 341 333 330 329 332 329 321 318 321 324 322 319 312 311 305 315 326 325
160 163 164 164 162 163 167 169 170 169 168 166 168 167 168 169 167 162 162 164 159 152 43 353 342 335 335 333 335 335 328 325 321 322 322 318 312 308 309 314 322 328 321
Height
1430 1432 1433 1435 1437 1439 1442 1442 1443 1448 1452 1456 1461 1471 1468 1475 1482 1486 1490 1495 1494 1495 1496 1501 1504 1507 1510 1513 1515 1517 1519 1521 1523 1524 1526 1525 1527 1529 1529 1529 1530 1529 1529
1424 1424 1426 1428 1430 1432 1437 1435 1438 1444 1448 1454 1452 1463 1474 1472 1475 1481 1488 1493 1492 1494 1495 1499 1503 1506 1509 1512 1514 1517 1519 1520 1522 1524 1527 1527 1529 1528 1528 1528 1530 1529 1529
1419 1418 1419 1420 1422 1425 1428 1430 1434 1440 1443 1450 1455 1458 1468 1473 1471 1476 1486 1490 1491 1492 1495 1498 1502 1506 1508 1511 1513 1516 1518 1519 1521 1523 1525 1526 1527 1529 1528 1528 1529 1529 1529
1415 1411 1410 1412 1414 1418 1422 1424 1430 1435 1439 1443 1449 1447 1466 1468 1471 1472 1484 1486 1490 1491 1494 1498 1501 1505 1508 1511 1513 1515 1517 1518 1520 1523 1524 1524 1525 1528 1529 1529 1529 1529 1528
1410 1405 1402 1404 1408 1412 1417 1420 1424 1430 1434 1438 1442 1448 1456 1473 1473 1476 1480 1483 1488 1491 1495 1498 1502 1504 1507 1511 1513 1515 1517 1518 1520 1522 1525 1523 1525 1527 1528 1529 1530 1528 1527
1404 1397 1394 1397 1401 1406 1411 1416 1420 1424 1429 1436 1441 1450 1452 1463 1473 1475 1477 1481 1488 1490 1495 1497 1501 1504 1507 1510 1512 1514 1517 1518 1520 1524 1523 1524 1527 1526 1527 1527 1528 1526 1525
1391 1387 1386 1389 1394 1397 1406 1411 1417 1421 1428 1433 1445 1445 1457 1466 1473 1474 1476 1481 1487 1489 1494 1496 1501 1503 1507 1510 1512 1514 1517 1519 1520 1526 1522 1524 1526 1527 1526 1526 1525 1524 1521
1384 1379 1380 1385 1389 1393 1401 1409 1414 1419 1425 1433 1439 1439 1454 1462 1472 1474 1477 1485 1487 1489 1494 1496 1500 1504 1507 1510 1511 1514 1517 1519 1522 1524 1524 1525 1525 1526 1525 1524 1523 1520 1520
1379 1377 1379 1383 1386 1391 1397 1404 1411 1417 1423 1426 1438 1442 1460 1461 1469 1475 1479 1485 1487 1490 1493 1496 1500 1505 1508 1510 1512 1515 1516 1518 1522 1524 1523 1524 1524 1525 1524 1522 1521 1520 1517
1377 1377 1378 1382 1387 1391 1397 1404 1408 1416 1424 1429 1438 1443 1455 1463 1472 1474 1479 1486 1488 1490 1491 1495 1501 1506 1508 1511 1513 1515 1518 1518 1519 1523 1522 1523 1523 1523 1522 1520 1518 1517 1516
1377 1377 1379 1384 1388 1392 1398 1404 1410 1416 1423 1432 1439 1447 1460 1468 1473 1478 1482 1486 1487 1489 1492 1496 1502 1506 1509 1512 1514 1516 1517 1517 1520 1521 1522 1520 1521 1520 1520 1517 1515 1513 1511
1380 1380 1382 1387 1391 1395 1400 1406 1411 1418 1428 1436 1437 1446 1459 1466 1473 1479 1481 1485 1487 1489 1494 1497 1503 1506 1508 1513 1514 1516 1516 1517 1519 1520 1519 1518 1518 1518 1517 1513 1511 1509 1506
1384 1385 1387 1391 1394 1397 1403 1410 1417 1426 1439 1437 1442 1444 1460 1467 1477 1480 1481 1485 1487 1490 1495 1499 1503 1506 1510 1512 1515 1515 1516 1515 1518 1518 1517 1516 1515 1515 1513 1510 1507 1505 1502
1389 1390 1392 1395 1398 1402 1406 1413 1420 1429 1440 1442 1446 1449 1463 1471 1478 1480 1481 1488 1489 1493 1495 1501 1504 1508 1510 1512 1514 1514 1515 1515 1516 1515 1515 1513 1512 1511 1508 1506 1503 1500 1498
1394 1395 1396 1399 1402 1406 1410 1416 1422 1434 1442 1446 1452 1460 1467 1474 1477 1479 1482 1489 1490 1492 1496 1502 1507 1507 1510 1511 1512 1513 1514 1515 1514 1513 1511 1510 1509 1507 1504 1501 1499 1496 1493
1396 1397 1399 1402 1404 1407 1411 1418 1426 1435 1445 1451 1455 1460 1471 1475 1477 1479 1484 1489 1490 1493 1498 1506 1506 1507 1510 1510 1511 1512 1513 1513 1512 1511 1509 1506 1505 1502 1500 1498 1495 1492 1489
1397 1399 1401 1404 1405 1409 1413 1418 1426 1434 1442 1454 1457 1466 1472 1475 1477 1480 1485 1488 1491 1496 1501 1505 1506 1508 1508 1509 1511 1511 1511 1511 1509 1507 1506 1504 1502 1499 1496 1494 1492 1491 1489
1400 1402 1403 1405 1408 1411 1415 1422 1429 1438 1445 1452 1458 1466 1471 1474 1477 1481 1485 1489 1493 1497 1501 1504 1505 1507 1509 1510 1510 1510 1508 1508 1506 1504 1503 1502 1499 1496 1492 1490 1488 1486 1483
1401 1403 1406 1408 1412 1419 1424 1430 1435 1442 1446 1454 1463 1469 1473 1475 1479 1483 1487 1492 1496 1498 1500 1503 1505 1507 1509 1508 1508 1507 1506 1505 1504 1502 1500 1498 1495 1491 1489 1487 1484 1481 1479
1406 1406 1408 1412 1418 1425 1430 1436 1440 1445 1451 1458 1463 1470 1475 1478 1480 1484 1490 1493 1497 1498 1500 1503 1505 1507 1508 1507 1506 1506 1504 1503 1502 1500 1496 1494 1491 1488 1486 1483 1480 1476 1473
1409 1411 1414 1418 1424 1430 1435 1439 1443 1449 1455 1462 1467 1472 1476 1480 1484 1487 1491 1493 1497 1500 1501 1502 1504 1506 1506 1505 1504 1503 1502 1501 1499 1496 1494 1492 1488 1485 1482 1478 1475 1471 1467
1415 1417 1421 1426 1431 1435 1439 1443 1448 1454 1459 1464 1469 1474 1478 1482 1485 1489 1492 1495 1498 1500 1500 1502 1504 1504 1505 1504 1503 1502 1500 1498 1495 1493 1490 1487 1483 1480 1476 1474 1470 1466 1462
1419 1422 1426 1429 1433 1438 1442 1446 1451 1456 1461 1467 1472 1477 1481 1484 1488 1491 1494 1496 1497 1499 1501 1502 1504 1505 1504 1502 1501 1500 1497 1494 1490 1488 1485 1481 1478 1474 1472 1469 1465 1463 1460
1425 1427 1430 1433 1437 1442 1446 1450 1454 1459 1463 1469 1474 1479 1483 1485 1488 1491 1494 1496 1497 1500 1502 1504 1504 1502 1502 1501 1499 1496 1493 1490 1487 1484 1481 1477 1473 1470 1468 1465 1462 1459 1455
1428 1431 1434 1437 1440 1443 1449 1453 1457 1462 1466 1471 1476 1479 1483 1486 1489 1491 1493 1496 1499 1501 1502 1502 1502 1502 1501 1499 1497 1493 1489 1486 1483 1478 1475 1472 1469 1466 1464 1461 1457 1454 1450
1431 1434 1436 1440 1443 1447 1452 1456 1460 1464 1468 1471 1476 1479 1483 1487 1489 1491 1494 1498 1499 1501 1501 1501 1501 1500 1498 1496 1492 1488 1485 1481 1477 1474 1471 1468 1465 1463 1459 1456 1452 1449 1446